Airfield :
LOGIN :

Register | Disclaimer

   EN    FR    IT 

 










Legend :    VFR   Marginal VFR   IFR   Intensive IFR   Very Intensive IFR
Visi :
Ceiling :
>= 8 km
>= 3000ft
5 to 8 km
1000 to 3000 ft
1500m to 5 km
500 to 1000 ft
800 to 1500m
200 to 500 ft
< 800m
< 200 ft
Symbols :   Thunderstorms  Fog  Heavy snow  Heavy precipitations  Wind > 20 kt
SIGMETs :     Misc.  Thunderstorms  Icing  Turbulence  Mountain Waves  Volcanic Ashes







- Airport Elevation : 25 ft
- IATA code : QCY


EGXC - RAF Coningsby

CURRENT METAR :
  • 251850Z 01007KT 9999 OVC006 15/14 Q1023 RMK YLO1

EXPIRED METARs :
  • 251750Z 01009KT 9999 SCT006 OVC008 15/14 Q1022 RMK YLO1
  • 251650Z 36010KT 9999 BKN005 OVC007 15/14 Q1021 RMK YLO1

TAF TAF EGXC
Valid from the 25 at 18:00 until the 26 at 12:00 UTC


251619Z 2518/2612 36008KT 9999 BKN006
PROB40
TEMPO 2518/2604 7000 -DZ BKN004
BECMG 2605/2608 BKN009
BECMG 2609/2612 BKN018
No reported NOTAMs for that airfield.



MET'MAP, your aeronautical weather chart ! - Copyright ORBIFLY December 2007 - Disclaimer

ORBIFLY MET'MAP TEAM :

Programming & Development : Alexandra Zaïnal
Concept & Development : Baudouin d'Aumeries
Co-Development & Prog : Marc-Olivier Méhu
Technical & hardware support : Manuel Goepfert

Contact : metmap@orbifly.com




SOURCES & CREDITS :

   NOAA